Content
SEND FEEDBACK

Daily
Averages
Monthly
Summary
United States of America

AGAT, GUAM


Home > North America > United States > Guam
Elevation: 110 meters     Latitude: 13 33N     Longitude: 144 50E

WEATHER
 
SELECT A DAY
Number of Records: 208,807;   Date Range: 1/1/95 - 7/7/14
 
SHARE

PRINT THIS DATA

[ ← Previous Day ]
WEATHER ALMANAC - 18 APRIL, 2013
[ Next Day → ]
[ °F ]   °C
Weather ElementAverageHighLow
Temperature29.1 °C32.2 °C (12:54 pm)25.6 °C (5:54 am)
Dewpoint22.9 °C24.4 °C (11:54 pm)21.7 °C (11:54 am)
Humidity70 %85 % (11:54 pm)54 % (12:54 pm)
Barometer1011.2 hPa1012.9 hPa (9:01 am)1009.5 hPa (1:54 pm)
Wind Speed12.4 km/h22.2 km/h (12:54 pm)
Wind Gust33.3 km/h (1:54 pm)
Weather ElementAverage
Visibility16.1 km
Wind DirectionENE (80 °)

Weather ElementTotal
Precipitation2.03 mm
Cooling Degree Days10.6 (Base 18.3)
Growing Degree Days18.9 (Base 10)
Averaged from 29 records on 18 April, 2013
WEATHER CONDITIONS BREAKOUT
WIND DIRECTION BREAKOUT
WEATHER BY HOUR - 18 APRIL, 2013
[ °F ]   °C
Local TimeTemperatureDewpointHumidityBarometerVisibilityWind DirectionWind SpeedGust SpeedPrecipitationEventsConditions
1:54 AM26.7 °C22.8 °C79 %1010.8 hPa16.1 kmSE (130°)5.6 km/hPartly Cloudy
2:54 AM26.7 °C23.3 °C81 %1010.5 hPa16.1 kmENE (60°)5.6 km/hScattered Clouds
3:54 AM26.7 °C22.8 °C79 %1010.2 hPa16.1 kmEast (80°)5.6 km/hScattered Clouds
4:54 AM26.1 °C22.8 °C82 %1010.5 hPa16.1 kmEast (100°)5.6 km/hClear
5:54 AM25.6 °C22.2 °C81 %1010.8 hPa16.1 kmCalmPartly Cloudy
6:39 AM26 °C23 °C83 %1011.9 hPa16.1 kmNE (50°)5.6 km/hMostly Cloudy
6:54 AM27.2 °C23.3 °C79 %1011.2 hPa16.1 kmNE (50°)7.4 km/hMostly Cloudy
7:44 AM28 °C24 °C79 %1012.5 hPa16.1 kmNNE (30°)9.3 km/hScattered Clouds
7:51 AM29 °C24 °C74 %1012.5 hPa16.1 kmNE (40°)11.1 km/hMostly Cloudy
7:54 AM28.9 °C23.9 °C74 %1011.9 hPa16.1 kmNE (40°)9.3 km/hMostly Cloudy
8:54 AM30 °C23.3 °C67 %1012.2 hPa16.1 kmEast (100°)13 km/hMostly Cloudy
9:01 AM31 °C23 °C62 %1012.9 hPa16.1 kmEast (80°)14.8 km/hScattered Clouds
9:28 AM31 °C23 °C62 %1012.9 hPa16.1 kmEast (100°)16.7 km/hMostly Cloudy
9:36 AM31 °C22 °C58 %1012.9 hPa16.1 kmEast (100°)16.7 km/hScattered Clouds
9:54 AM30.6 °C22.2 °C61 %1012.5 hPa16.1 kmEast (80°)18.5 km/hScattered Clouds
10:54 AM30.6 °C22.8 °C63 %1011.9 hPa16.1 kmESE (110°)16.7 km/hScattered Clouds
11:54 AM31.7 °C21.7 °C55 %1011.5 hPa16.1 kmESE (110°)20.4 km/hPartly Cloudy
12:54 PM32.2 °C21.7 °C54 %1010.2 hPa16.1 kmEast (90°)22.2 km/hPartly Cloudy
1:54 PM32.2 °C21.7 °C54 %1009.5 hPa16.1 kmEast (100°)20.4 km/h33.3 km/hPartly Cloudy
2:54 PM31.7 °C22.2 °C57 %1009.5 hPa16.1 kmEast (80°)22.2 km/hPartly Cloudy
3:54 PM31.1 °C23.3 °C63 %1009.5 hPa16.1 kmEast (100°)20.4 km/h29.6 km/hScattered Clouds
4:54 PM31.1 °C23.3 °C63 %1009.5 hPa16.1 kmEast (100°)18.5 km/hScattered Clouds
5:54 PM29.4 °C22.8 °C67 %1009.8 hPa16.1 kmEast (80°)20.4 km/hPartly Cloudy
6:54 PM28.9 °C23.3 °C72 %1010.5 hPa16.1 kmEast (100°)11.1 km/hClear
7:54 PM28.3 °C23.3 °C74 %1011.5 hPa16.1 kmEast (100°)7.4 km/hPartly Cloudy
8:54 PM27.8 °C22.8 °C74 %1012.2 hPa16.1 kmEast (80°)5.6 km/hClear
9:54 PM28.3 °C23.3 °C74 %1012.2 hPa16.1 kmEast (80°)9.3 km/hScattered Clouds
10:54 PM28.3 °C23.3 °C74 %1012.2 hPa16.1 kmENE (60°)7.4 km/hPartly Cloudy
11:54 PM27.2 °C24.4 °C85 %1011.9 hPa16.1 kmEast (90°)11.1 km/h2.03 mmScattered Clouds
Hourly data recorded from PGUM, located 0 kilometers away from Agat, Guam







STORIES FROM OUR PARTNERS